Flagstaff, AZ

7:31 PM MST on February 23, 2017 (GMT -0700)
Lowell Observatory | | Change Station

Elev 7247 ft 35.20 °N, 111.67 °W | Updated 19 seconds ago

Partly Cloudy
Partly Cloudy
27.9 °F
Feels Like 20 °F
N
8.1
Wind Variable Wind from West
Gusts 11.0 mph

Today
High -- | Low -- °F
--% Chance of Precip.
Yesterday
High -- | Low -- °F
Precip. -- in
Pressure 29.81 in
Visibility 10.0 miles
Clouds Mostly Cloudy 4800 ft
Windchill 20 °F
Dew Point 11 °F
Humidity 48%
Rainfall 0.00 in
Snow Depth Not available.
7:03 AM 6:17 PM
Waning Crescent, 7% visible
METAR KFLG 240157Z 25007KT 10SM BKN048 M01/M10 A2983 RMK AO2 SLP095 T10061100
Pressure 29.81 in
Visibility 10.0 miles
Clouds Mostly Cloudy 4800 ft
Windchill 20 °F
Dew Point 11 °F
Humidity 48%
Rainfall 0.00 in
Snow Depth Not available.
7:03 AM 6:17 PM
Waning Crescent, 7% visible
METAR KFLG 240157Z 25007KT 10SM BKN048 M01/M10 A2983 RMK AO2 SLP095 T10061100

Get Your Daily Forecast Email!

Thanks for signing up!

Be on the lookout for a verification email in your inbox.

You'll start receiving the daily forecast at 8 AM.

×

10-Day Weather Forecast

Almanac

Astronomy

Feb. 23, 2017 Rise Set
Actual Time
Civil Twilight
Nautical Twilight
Astronomical Twilight
Moon
Length of Visible Light
Length of Day
Tomorrow will be .
, % of the Moon is Illuminated

Today's Extremes

State Highs State Lows

Community

WunderPhotos

Upload Photos

1,962,540 photos uploaded!

WunderBlog® & News

Nearby

Air Quality

  Air Quality AQ Index Pollutant
Not available.

Snow Depth

Station Depth Elevation

Earthquake Activity

City Distance Mag. Time & Date
Minimum magnitude displayed is 2.5.

Coastal Water Temperatures

Place Temperature

Stations

Nearby Weather Stations

Station Location Temp. Windchill Dew Point Humidity Wind Precip. Elev Updated Type
                   

Watches & Warnings

There are currently no watches in effect.